| time (UTC) | temp C | wind direction | speed KPH | gust KPH | rain 1hr cm | rain 24hr cm | rain mn cm | humidity % | barometer mb |
| 20260904130502 | 27 | 12.9 | 0.0 | 0.00 | 0.00 | 0.00 | 32 | 1015.0 | |
| 20260904123502 | 27 | 270 | 11.3 | 0.0 | 0.00 | 0.00 | 0.00 | 30 | 1015.0 |
| 20260904120502 | 27 | 240 | 9.7 | 0.0 | 0.00 | 0.00 | 0.00 | 32 | 1015.0 |
| 20260904113503 | 27 | 9.7 | 0.0 | 0.00 | 0.00 | 0.00 | 37 | 1015.0 | |
| 20260904110502 | 27 | 280 | 8.0 | 0.0 | 0.00 | 0.00 | 0.00 | 37 | 1016.0 |
| 20260904103502 | 27 | 200 | 9.7 | 0.0 | 0.00 | 0.00 | 0.00 | 39 | 1016.0 |
| 20260904100502 | 26 | 210 | 4.8 | 0.0 | 0.00 | 0.00 | 0.00 | 42 | 1016.0 |
| 20260904093502 | 25 | 8.0 | 0.0 | 0.00 | 0.00 | 0.00 | 44 | 1016.0 | |
| 20260904090502 | 25 | 8.0 | 0.0 | 0.00 | 0.00 | 0.00 | 42 | 1017.0 | |
| 20260904083502 | 23 | 230 | 8.0 | 0.0 | 0.00 | 0.00 | 0.00 | 47 | 1017.0 |
| 20260904080502 | 23 | 3.2 | 0.0 | 0.00 | 0.00 | 0.00 | 50 | 1017.0 | |
| 20260904073504 | 22 | 4.8 | 0.0 | 0.00 | 0.00 | 0.00 | 57 | 1017.0 | |
| 20260904070503 | 21 | 240 | 8.0 | 0.0 | 0.00 | 0.00 | 0.00 | 57 | 1017.0 |
| 20260904063502 | 20 | 210 | 4.8 | 0.0 | 0.00 | 0.00 | 0.00 | 60 | 1017.0 |
| 20260904060502 | 17 | 250 | 4.8 | 0.0 | 0.00 | 0.00 | 0.00 | 73 | 1017.0 |
| 20260904053503 | 17 | 220 | 4.8 | 0.0 | 0.00 | 0.00 | 0.00 | ||
| 20260904050502 | 17 | 3.2 | 0.0 | 0.00 | 0.00 | 0.00 | 77 | 1017.0 | |
| 20260904043502 | 15 | 190 | 4.8 | 0.0 | 0.00 | 0.00 | 0.00 | 82 | 1017.0 |
| 20260904040504 | 15 | 230 | 4.8 | 0.0 | 0.00 | 0.00 | 0.00 | 82 | 1017.0 |
| 20260904033502 | 15 | 260 | 4.8 | 0.0 | 0.00 | 0.00 | 0.00 | 82 | 1017.0 |
| 20260904030502 | 15 | 270 | 9.7 | 0.0 | 0.00 | 0.00 | 0.00 | 82 | 1017.0 |
| 20260904023502 | 15 | 250 | 8.0 | 0.0 | 0.00 | 0.00 | 0.00 | 82 | 1017.0 |
| 20260904020502 | 16 | 260 | 9.7 | 0.0 | 0.00 | 0.00 | 0.00 | 77 | 1017.0 |
| 20260904013502 | 16 | 210 | 8.0 | 0.0 | 0.00 | 0.00 | 0.00 | 77 | 1016.0 |
| 20260904010502 | 16 | 220 | 8.0 | 0.0 | 0.00 | 0.00 | 0.00 | 77 | 1017.0 |
| 20260904003503 | 16 | 240 | 9.7 | 0.0 | 0.00 | 0.00 | 0.00 | 77 | 1017.0 |
| 20260904000502 | 16 | 240 | 8.0 | 0.0 | 0.00 | 0.00 | 0.00 | 83 | 1017.0 |
| 20260903233502 | 16 | 280 | 8.0 | 0.0 | 0.00 | 0.00 | 0.00 | 83 | 1017.0 |
| 20260903230502 | 17 | 270 | 11.3 | 0.0 | 0.00 | 0.00 | 0.00 | 73 | 1017.0 |
| 20260903223503 | 17 | 240 | 8.0 | 0.0 | 0.00 | 0.00 | 0.00 | 68 | 1017.0 |
| 20260903220503 | 17 | 3.2 | 0.0 | 0.00 | 0.00 | 0.00 | 73 | 1017.0 | |
| 20260903213502 | 17 | 3.2 | 0.0 | 0.00 | 0.00 | 0.00 | 73 | 1017.0 | |
| 20260903210502 | 21 | 240 | 8.0 | 0.0 | 0.00 | 0.00 | 0.00 | ||
| 20260903203503 | 21 | 240 | 9.7 | 0.0 | 0.00 | 0.00 | 0.00 | 57 | 1017.0 |
| 20260903200502 | 21 | 220 | 4.8 | 0.0 | 0.00 | 0.00 | 0.00 | 57 | 1017.0 |
| 20260903193501 | 21 | 220 | 8.0 | 0.0 | 0.00 | 0.00 | 0.00 | 57 | 1017.0 |
| 20260903190502 | 20 | 230 | 8.0 | 0.0 | 0.00 | 0.00 | 0.00 | 60 | 1017.0 |
| 20260903183502 | 20 | 3.2 | 0.0 | 0.00 | 0.00 | 0.00 | 60 | 1017.0 | |
| 20260903180502 | 22 | 330 | 8.0 | 0.0 | 0.00 | 0.00 | 0.00 | 50 | 1017.0 |
| 20260903173502 | 22 | 330 | 8.0 | 0.0 | 0.00 | 0.00 | 0.00 | 47 | 1017.0 |
| 20260903170502 | 23 | 360 | 4.8 | 0.0 | 0.00 | 0.00 | 0.00 | 41 | 1017.0 |
| 20260903163502 | 23 | 360 | 9.7 | 0.0 | 0.00 | 0.00 | 0.00 | 44 | 1017.0 |
| 20260903160502 | 25 | 360 | 4.8 | 0.0 | 0.00 | 0.00 | 0.00 | 42 | 1016.0 |
| 20260903153502 | 25 | 10 | 4.8 | 0.0 | 0.00 | 0.00 | 0.00 | 42 | 1016.0 |
| 20260903150502 | 26 | 350 | 8.0 | 0.0 | 0.00 | 0.00 | 0.00 | 39 | 1016.0 |
| 20260903143502 | 26 | 340 | 4.8 | 0.0 | 0.00 | 0.00 | 0.00 | 37 | 1017.0 |
| 20260903140502 | 26 | 360 | 9.7 | 0.0 | 0.00 | 0.00 | 0.00 | 39 | 1017.0 |
| 20260903133501 | 26 | 320 | 9.7 | 0.0 | 0.00 | 0.00 | 0.00 | 37 | 1017.0 |